• en France
  • Liste des pays
  • À 7 jours
  • Température de l'eau
  • Carte satellitaire
  • Carte météo
  • Widgets météo
  • user-avatar
    Se connecter

    Météo par heure à Panikovec

    Ce jour, 17 Octobre, Mercredi

    Heure Température Précipitation Vent Pression Humidité
    00:00 +14°C° 0 mm 2 m/s 753 mmHg 71%
    01:00 +13°C° 0 mm 2 m/s 753 mmHg 73%
    02:00 +13°C° 0 mm 2 m/s 753 mmHg 74%
    03:00 +12°C° 0 mm 2 m/s 753 mmHg 75%
    04:00 +12°C° 0 mm 2 m/s 753 mmHg 77%
    05:00 +12°C° 0 mm 2 m/s 753 mmHg 78%
    06:00 +12°C° 0 mm 2 m/s 753 mmHg 80%
    07:00 +12°C° 0 mm 2 m/s 753 mmHg 78%
    08:00 +13°C° 0 mm 2 m/s 753 mmHg 76%
    09:00 +14°C° 0 mm 2 m/s 753 mmHg 72%
    10:00 +16°C° 0 mm 2 m/s 753 mmHg 67%
    11:00 +17°C° 0 mm 2 m/s 753 mmHg 62%
    12:00 +19°C° 0 mm 2 m/s 753 mmHg 57%
    13:00 +19°C° 0 mm 2 m/s 753 mmHg 55%
    14:00 +20°C° 0 mm 2 m/s 752 mmHg 54%
    15:00 +20°C° 0 mm 2 m/s 752 mmHg 53%
    16:00 +19°C° 0 mm 2 m/s 752 mmHg 58%
    17:00 +18°C° 0 mm 2 m/s 752 mmHg 63%
    18:00 +16°C° 0 mm 1 m/s 752 mmHg 69%
    19:00 +16°C° 0 mm 1 m/s 752 mmHg 71%
    20:00 +15°C° 0 mm 1 m/s 752 mmHg 74%
    21:00 +14°C° 0 mm 1 m/s 752 mmHg 76%
    22:00 +14°C° 0 mm 1 m/s 752 mmHg 78%
    23:00 +14°C° 0 mm 1 m/s 752 mmHg 80%

    Demain, 18 Octobre, Jeudi

    Heure Température Précipitation Vent Pression Humidité
    00:00 +13°C° 0 mm 1 m/s 752 mmHg 82%
    01:00 +12°C° 0 mm 0 m/s 752 mmHg 83%
    02:00 +12°C° 0 mm 0 m/s 752 mmHg 84%
    03:00 +11°C° 0 mm 0 m/s 752 mmHg 84%
    04:00 +11°C° 0 mm 0 m/s 752 mmHg 85%
    05:00 +11°C° 0 mm 0 m/s 752 mmHg 85%
    06:00 +10°C° 0 mm 0 m/s 752 mmHg 86%
    07:00 +11°C° 0 mm 0 m/s 752 mmHg 82%
    08:00 +12°C° 0 mm 0 m/s 752 mmHg 79%
    09:00 +13°C° 0 mm 0 m/s 752 mmHg 76%
    10:00 +14°C° 0 mm 0 m/s 752 mmHg 70%
    11:00 +18°C° 0 mm 1 m/s 752 mmHg 65%
    12:00 +19°C° 0 mm 1 m/s 752 mmHg 59%
    13:00 +20°C° 0 mm 1 m/s 751 mmHg 57%
    14:00 +20°C° 0 mm 1 m/s 751 mmHg 55%
    15:00 +21°C° 0 mm 1 m/s 751 mmHg 53%
    16:00 +19°C° 0 mm 1 m/s 750 mmHg 57%
    17:00 +18°C° 0 mm 1 m/s 750 mmHg 62%
    18:00 +16°C° 0 mm 1 m/s 750 mmHg 67%
    19:00 +16°C° 0 mm 1 m/s 750 mmHg 68%
    20:00 +15°C° 0 mm 1 m/s 750 mmHg 70%
    21:00 +15°C° 0 mm 1 m/s 750 mmHg 72%
    22:00 +14°C° 0 mm 1 m/s 749 mmHg 73%
    23:00 +14°C° 0 mm 2 m/s 749 mmHg 74%

    Après-demain, 19 Octobre, Vendredi

    Heure Température Précipitation Vent Pression Humidité
    00:00 +13°C° 0 mm 2 m/s 749 mmHg 75%
    01:00 +13°C° 0 mm 2 m/s 749 mmHg 75%
    02:00 +13°C° 0 mm 2 m/s 749 mmHg 76%
    03:00 +12°C° 0 mm 2 m/s 749 mmHg 76%
    04:00 +12°C° 0 mm 2 m/s 748 mmHg 76%
    05:00 +12°C° 0 mm 2 m/s 748 mmHg 76%
    06:00 +12°C° 0 mm 2 m/s 748 mmHg 76%
    07:00 +12°C° 0 mm 2 m/s 748 mmHg 73%
    08:00 +13°C° 0 mm 2 m/s 748 mmHg 70%
    09:00 +14°C° 0 mm 2 m/s 748 mmHg 67%
    10:00 +15°C° 0 mm 2 m/s 747 mmHg 61%
    11:00 +17°C° 0 mm 2 m/s 747 mmHg 56%
    12:00 +18°C° 0 mm 3 m/s 747 mmHg 50%
    13:00 +19°C° 0 mm 3 m/s 747 mmHg 49%
    14:00 +19°C° 0 mm 3 m/s 746 mmHg 48%
    15:00 +20°C° 0 mm 3 m/s 746 mmHg 46%
    16:00 +18°C° 0 mm 2 m/s 746 mmHg 51%
    17:00 +17°C° 0 mm 2 m/s 745 mmHg 55%
    18:00 +16°C° 0 mm 2 m/s 745 mmHg 59%
    19:00 +15°C° 0 mm 2 m/s 745 mmHg 61%
    20:00 +15°C° 0 mm 2 m/s 745 mmHg 63%
    21:00 +14°C° 0 mm 1 m/s 745 mmHg 64%
    22:00 +14°C° 0 mm 1 m/s 745 mmHg 67%
    23:00 +14°C° 0 mm 1 m/s 745 mmHg 69%

    20 Octobre, Samedi

    Heure Température Précipitation Vent Pression Humidité
    00:00 +13°C° 0 mm 1 m/s 745 mmHg 71%
    01:00 +13°C° 0 mm 2 m/s 745 mmHg 75%
    02:00 +12°C° 0 mm 2 m/s 745 mmHg 79%
    03:00 +12°C° 0 mm 2 m/s 745 mmHg 83%
    04:00 +10°C° 0 mm 2 m/s 745 mmHg 87%
    05:00 +10°C° 0 mm 3 m/s 745 mmHg 90%
    06:00 +10°C° 0 mm 3 m/s 745 mmHg 93%
    07:00 +10°C° 0 mm 4 m/s 746 mmHg 91%
    08:00 +10°C° 0 mm 4 m/s 746 mmHg 89%
    09:00 +10°C° 0 mm 5 m/s 747 mmHg 87%
    10:00 +11°C° 0 mm 4 m/s 747 mmHg 81%
    11:00 +12°C° 0 mm 4 m/s 747 mmHg 75%
    12:00 +12°C° 0 mm 4 m/s 747 mmHg 69%
    13:00 +12°C° 0 mm 4 m/s 747 mmHg 64%
    14:00 +13°C° 0 mm 4 m/s 747 mmHg 59%
    15:00 +13°C° 0 mm 4 m/s 747 mmHg 53%
    16:00 +12°C° 0 mm 4 m/s 748 mmHg 57%
    17:00 +11°C° 0 mm 3 m/s 748 mmHg 60%
    18:00 +9°C° 0 mm 3 m/s 748 mmHg 63%
    19:00 +9°C° 0 mm 3 m/s 748 mmHg 67%
    20:00 +8°C° 0 mm 2 m/s 748 mmHg 70%
    21:00 +8°C° 0 mm 2 m/s 749 mmHg 73%
    22:00 +7°C° 0 mm 2 m/s 749 mmHg 75%
    23:00 +7°C° 0 mm 2 m/s 749 mmHg 77%

    21 Octobre, Dimanche

    Heure Température Précipitation Vent Pression Humidité
    00:00 +6°C° 0 mm 2 m/s 749 mmHg 80%
    01:00 +6°C° 0 mm 2 m/s 749 mmHg 81%
    02:00 +6°C° 0 mm 2 m/s 749 mmHg 83%
    03:00 +5°C° 0 mm 2 m/s 749 mmHg 85%
    04:00 +5°C° 0 mm 2 m/s 749 mmHg 87%
    05:00 +5°C° 0 mm 2 m/s 749 mmHg 89%
    06:00 +5°C° 0 mm 2 m/s 749 mmHg 90%
    07:00 +5°C° 0 mm 2 m/s 749 mmHg 88%
    08:00 +6°C° 0 mm 2 m/s 750 mmHg 85%
    09:00 +6°C° 0 mm 2 m/s 750 mmHg 82%
    10:00 +8°C° 0 mm 2 m/s 750 mmHg 75%
    11:00 +9°C° 0 mm 3 m/s 750 mmHg 68%
    12:00 +10°C° 0 mm 3 m/s 750 mmHg 61%
    13:00 +11°C° 0 mm 3 m/s 750 mmHg 60%
    14:00 +11°C° 0 mm 3 m/s 750 mmHg 58%
    15:00 +11°C° 0 mm 3 m/s 750 mmHg 57%
    16:00 +10°C° 0 mm 3 m/s 750 mmHg 62%
    17:00 +9°C° 0 mm 3 m/s 750 mmHg 66%
    18:00 +8°C° 0 mm 3 m/s 751 mmHg 71%
    19:00 +8°C° 0 mm 3 m/s 751 mmHg 73%
    20:00 +7°C° 0 mm 3 m/s 751 mmHg 75%
    21:00 +5°C° 0 mm 3 m/s 751 mmHg 78%
    22:00 +5°C° 0 mm 3 m/s 752 mmHg 79%
    23:00 +5°C° 0 mm 3 m/s 752 mmHg 81%

    22 Octobre, Lundi

    Heure Température Précipitation Vent Pression Humidité
    00:00 +5°C° 0 mm 2 m/s 752 mmHg 82%
    01:00 +5°C° 0 mm 2 m/s 752 mmHg 84%
    02:00 +5°C° 0 mm 2 m/s 752 mmHg 85%
    03:00 +4°C° 0 mm 2 m/s 752 mmHg 87%
    04:00 +4°C° 0 mm 2 m/s 752 mmHg 88%
    05:00 +4°C° 0 mm 2 m/s 752 mmHg 89%
    06:00 +4°C° 0 mm 2 m/s 752 mmHg 89%
    07:00 +4°C° 0 mm 2 m/s 752 mmHg 86%
    08:00 +5°C° 0 mm 2 m/s 752 mmHg 83%
    09:00 +5°C° 0 mm 2 m/s 752 mmHg 79%
    10:00 +7°C° 0 mm 2 m/s 752 mmHg 73%
    11:00 +8°C° 0 mm 2 m/s 752 mmHg 66%
    12:00 +10°C° 0 mm 2 m/s 752 mmHg 59%
    13:00 +10°C° 0 mm 2 m/s 751 mmHg 56%
    14:00 +12°C° 0 mm 2 m/s 751 mmHg 53%
    15:00 +12°C° 0 mm 1 m/s 750 mmHg 50%
    16:00 +11°C° 0 mm 1 m/s 750 mmHg 54%
    17:00 +10°C° 0 mm 1 m/s 750 mmHg 58%
    18:00 +9°C° 0 mm 1 m/s 750 mmHg 62%
    19:00 +9°C° 0 mm 1 m/s 750 mmHg 64%
    20:00 +8°C° 0 mm 1 m/s 749 mmHg 65%
    21:00 +8°C° 0 mm 1 m/s 749 mmHg 66%
    22:00 +8°C° 0 mm 1 m/s 749 mmHg 68%
    23:00 +8°C° 0 mm 1 m/s 749 mmHg 69%
    Voir plus